User: anonymous   Login
Location: McLaughlin
(0.0000°N, 0.0000°E)
Time: 23:55:20
(UTC+00:00)
Language:

XW-2D - Orbit

View from above orbital plane
View from above orbital plane
View from above satellite
View from above satellite

Ground track
Ground track

The orbit data is extracted from the following two-line orbital elements,

1 40907U 15049J   19235.72086023  .00000509  00000-0  30023-4 0  9993
2 40907  97.4667 236.3902 0013365 334.4797 112.1081 15.15915182217014
Epoch (UTC): 23 August 2019 17:18:02
Eccentricity: 0.0013365
inclination: 97.4667°
perigee height: 509 km
apogee height: 527 km
right ascension of ascending node: 236.3902°
argument of perigee: 334.4797°
revolutions per day: 15.15915182
mean anomaly at epoch: 112.1081°
orbit number at epoch: 21701

The dashed part of the orbit path shows where the satellite is in the earth's shadow,  

DLR